DW5082 Tarrytown NY US current weather conditions

sailwx.info

Wind from 154

Air temperature 14.4° C
Dewpoint 13.0° C

Last reported at 2019-Aug-25 08:07 UTC.
Time now 2019-Aug-25 08:56 UTC

Location: N 41°03' W 073°51'.
View on Google Maps.

See reports from other nearby stations

  
Tides and Currents Weather Stations Pressure Air Temp Water Temp Dewpoint Dewpoint Depression Visibility Wind Speed Wind Dir Waves Ship Positions
date/time (UTC)wind fromknots sea level pressurealtimeterstation pressurevisibilityair tempwater tempwave heightnotes
2019-Aug-25 08:07 154 14.4
2019-Aug-25 08:02 154 14.4
2019-Aug-25 07:47 154 15.0
2019-Aug-25 07:42 154 15.0
2019-Aug-25 07:37 154 15.0
2019-Aug-25 07:32 154 15.6
2019-Aug-25 07:17 148 15.6
2019-Aug-25 07:12 148 15.6
2019-Aug-25 07:07 148 16.1
2019-Aug-25 07:02 148 16.1
2019-Aug-25 06:47 147 16.7
2019-Aug-25 06:42 084 16.7
2019-Aug-25 06:37 187 16.7
2019-Aug-25 06:32 264 16.7
2019-Aug-25 06:17 264 16.7
2019-Aug-25 06:12 264 16.7
2019-Aug-25 06:07 264 16.7
2019-Aug-25 06:02 265 16.7
2019-Aug-25 05:47 165 17.2
2019-Aug-25 05:42 028 0 gusting 2 17.8
2019-Aug-25 05:37 280 17.8
2019-Aug-25 05:32 321 17.8
2019-Aug-25 05:17 010 17.8
2019-Aug-25 05:12 013 17.8
2019-Aug-25 05:07 358 17.8
2019-Aug-25 05:02 298 17.2
2019-Aug-25 04:47 326 17.2
2019-Aug-25 04:42 326 17.2
2019-Aug-25 04:37 326 17.2
2019-Aug-25 04:32 341 17.2
2019-Aug-25 04:17 348 17.2
2019-Aug-25 04:12 320 17.2
2019-Aug-25 04:07 030 17.2
2019-Aug-25 04:02 335 17.2
2019-Aug-25 03:47 357 17.2
2019-Aug-25 03:42 063 17.2
2019-Aug-25 03:37 063 17.2
2019-Aug-25 03:32 019 17.2
2019-Aug-25 03:17 346 17.2
2019-Aug-25 03:12 346 17.2
2019-Aug-25 03:07 346 17.2
2019-Aug-25 03:02 054 17.2
2019-Aug-25 02:47 032 17.2
2019-Aug-25 02:42 032 17.8
2019-Aug-25 02:37 032 17.8
2019-Aug-25 02:32 032 17.8
2019-Aug-25 02:17 032 18.3
2019-Aug-25 02:12 014 18.3
2019-Aug-25 02:07 104 18.3
2019-Aug-25 02:02 350 18.9
2019-Aug-25 01:47 349 18.9
2019-Aug-25 01:42 023 18.9
2019-Aug-25 01:37 023 18.9
2019-Aug-25 01:32 024 18.9
2019-Aug-25 01:17 024 18.9
2019-Aug-25 01:12 024 19.4
2019-Aug-25 01:07 354 19.4
2019-Aug-25 01:02 328 19.4
2019-Aug-25 00:47 328 19.4
2019-Aug-25 00:42 326 19.4
2019-Aug-25 00:37 326 19.4
2019-Aug-25 00:32 326 19.4
2019-Aug-25 00:17 320 20.0
2019-Aug-25 00:12 320 20.0
2019-Aug-25 00:07 320 20.0
2019-Aug-25 00:02 320 20.0
2019-Aug-24 23:47 320 20.6
2019-Aug-24 23:42 320 20.6
2019-Aug-24 23:37 319 21.1
2019-Aug-24 23:32 320 21.1
2019-Aug-24 23:17 319 21.7
2019-Aug-24 23:12 319 21.7
2019-Aug-24 23:07 318 22.2
2019-Aug-24 23:02 309 22.2
2019-Aug-24 22:47 325 23.3
2019-Aug-24 22:42 323 23.3
2019-Aug-24 22:37 026 23.3
2019-Aug-24 22:32 343 0 gusting 2 23.3
2019-Aug-24 22:17 318 0 gusting 1 23.3
2019-Aug-24 22:12 282 23.3
2019-Aug-24 22:07 329 23.3
2019-Aug-24 22:02 082 22.8
2019-Aug-24 21:47 284 0 gusting 1 23.3
2019-Aug-24 21:42 258 0 gusting 2 23.3
2019-Aug-24 21:37 023 1 gusting 4 23.3
2019-Aug-24 21:32 240 23.9
2019-Aug-24 21:17 243 23.3
2019-Aug-24 21:12 204 0 gusting 5 22.8
2019-Aug-24 21:07 011 0 gusting 5 23.3
2019-Aug-24 21:02 101 23.3
2019-Aug-24 20:47 041 1 gusting 5 22.2
2019-Aug-24 20:42 063 22.8
2019-Aug-24 20:37 054 1 gusting 5 22.8
2019-Aug-24 20:32 048 0 gusting 6 23.3
2019-Aug-24 20:17 285 23.3
2019-Aug-24 20:12 316 0 gusting 2 22.8
2019-Aug-24 20:07 019 22.2
2019-Aug-24 20:02 307 2 gusting 6 22.2
2019-Aug-24 19:47 037 1 gusting 5 22.8
2019-Aug-24 19:42 353 1 gusting 4 22.8
2019-Aug-24 19:37 352 0 gusting 2 22.8
2019-Aug-24 19:32 296 0 gusting 6 22.8
2019-Aug-24 19:17 117 22.2
2019-Aug-24 19:12 048 1 gusting 5 22.2
2019-Aug-24 19:07 322 1 gusting 6 22.8
2019-Aug-24 19:02 238 2 gusting 6 22.8
2019-Aug-24 18:47 321 0 gusting 2 22.2
2019-Aug-24 18:42 063 1 gusting 5 21.7
2019-Aug-24 18:37 316 1 gusting 6 22.2
2019-Aug-24 18:32 008 0 gusting 6 22.8
2019-Aug-24 18:17 009 1 gusting 4 22.2
2019-Aug-24 18:12 334 2 gusting 6 22.2
2019-Aug-24 18:07 274 1 gusting 4 22.2
2019-Aug-24 18:02 309 21.7
2019-Aug-24 17:47 030 1 gusting 7 22.2
2019-Aug-24 17:42 036 2 gusting 6 22.2
2019-Aug-24 17:37 282 0 gusting 2 21.7
2019-Aug-24 17:32 299 1 gusting 8 21.7
2019-Aug-24 17:17 057 0 gusting 2 22.2
2019-Aug-24 17:12 352 0 gusting 5 21.7
2019-Aug-24 17:07 304 1 gusting 4 21.7
2019-Aug-24 17:02 322 0 gusting 6 21.7
2019-Aug-24 16:47 333 1 gusting 6 21.1
2019-Aug-24 16:42 339 2 gusting 6 21.1
2019-Aug-24 16:37 333 0 gusting 5 21.1
2019-Aug-24 16:32 352 2 gusting 7 21.7
2019-Aug-24 16:17 327 1 gusting 7 21.7
2019-Aug-24 16:12 307 1 gusting 6 21.7
2019-Aug-24 16:07 325 1 gusting 5 21.7
2019-Aug-24 16:02 353 4 gusting 8 21.1
2019-Aug-24 15:47 280 1 gusting 2 21.1
2019-Aug-24 15:42 293 0 gusting 5 21.1
2019-Aug-24 15:37 326 1 gusting 8 21.1
2019-Aug-24 15:32 011 1 gusting 7 21.1
2019-Aug-24 15:17 314 1 gusting 5 20.6
2019-Aug-24 15:12 180 0 gusting 5 20.6
2019-Aug-24 15:07 337 1 gusting 7 20.6
2019-Aug-24 15:02 028 1 gusting 6 20.6
2019-Aug-24 14:47 313 2 gusting 5 20.0
2019-Aug-24 14:42 303 0 gusting 5 20.0
2019-Aug-24 14:37 340 4 gusting 7 20.0
2019-Aug-24 14:32 301 0 gusting 7 20.6
2019-Aug-24 14:17 144 0 gusting 2 20.0
2019-Aug-24 14:12 030 0 gusting 4 20.0
2019-Aug-24 14:07 342 1 gusting 5 20.0
2019-Aug-24 14:02 048 0 gusting 7 19.4
2019-Aug-24 13:47 008 0 gusting 5 19.4
2019-Aug-24 13:42 358 2 gusting 5 18.9
2019-Aug-24 13:37 338 0 gusting 5 18.9
2019-Aug-24 13:32 060 1 gusting 5 18.9
2019-Aug-24 13:17 055 1 gusting 4 18.9
2019-Aug-24 13:12 029 0 gusting 2 18.9
2019-Aug-24 13:07 276 18.3
2019-Aug-24 13:02 021 1 gusting 6 18.3
2019-Aug-24 12:47 034 17.8
2019-Aug-24 12:42 337 0 gusting 2 17.2
2019-Aug-24 12:37 344 0 gusting 4 17.2
2019-Aug-24 12:32 018 16.7
2019-Aug-24 12:17 065 15.6
2019-Aug-24 12:12 084 15.6
2019-Aug-24 12:07 084 15.6
2019-Aug-24 12:02 075 15.0
2019-Aug-24 11:47 070 14.4
2019-Aug-24 11:42 025 14.4
2019-Aug-24 11:37 013 13.9
2019-Aug-24 11:32 336 13.9
2019-Aug-24 11:17 157 13.3
2019-Aug-24 11:12 157 13.3
2019-Aug-24 11:07 157 13.3
2019-Aug-24 11:02 157 13.3
2019-Aug-24 10:47 157 13.3
2019-Aug-24 10:42 157 13.3
2019-Aug-24 10:37 157 13.3
2019-Aug-24 10:32 157 13.9
2019-Aug-24 10:17 157 13.9
2019-Aug-24 10:12 157 13.9
2019-Aug-24 10:07 156 13.9
2019-Aug-24 10:02 157 13.9
2019-Aug-24 09:47 289 14.4
2019-Aug-24 09:42 320 14.4
2019-Aug-24 09:37 294 14.4
2019-Aug-24 09:32 330 14.4
2019-Aug-24 09:17 305 14.4
2019-Aug-24 09:12 305 14.4
2019-Aug-24 09:07 049 14.4
2019-Aug-24 09:02 267 14.4
2019-Aug-24 08:47 201 14.4
2019-Aug-24 08:42 201 14.4
2019-Aug-24 08:37 201 14.4
2019-Aug-24 08:32 201 14.4
2019-Aug-24 08:17 004 15.0
2019-Aug-24 08:12 326 15.0
2019-Aug-24 08:07 093 15.0
2019-Aug-24 08:02 070 15.6
2019-Aug-24 07:47 259 15.6
2019-Aug-24 07:42 287 15.6
2019-Aug-24 07:37 286 15.6
2019-Aug-24 07:32 286 15.6
2019-Aug-24 07:17 335 15.6
2019-Aug-24 07:12 243 16.1
2019-Aug-24 07:07 276 0 gusting 1 16.1
2019-Aug-24 07:02 316 16.1
2019-Aug-24 06:47 310 16.7
2019-Aug-24 06:42 297 16.7
2019-Aug-24 06:37 067 16.7
2019-Aug-24 06:32 16.7
2019-Aug-24 06:17 269 16.7
2019-Aug-24 06:12 192 17.2
2019-Aug-24 06:07 131 17.2
2019-Aug-24 06:02 072 17.2
2019-Aug-24 05:47 254 0 gusting 2 17.2
2019-Aug-24 05:42 063 0 gusting 4 17.2
2019-Aug-24 05:37 319 17.2
2019-Aug-24 05:32 291 0 gusting 2 17.2
2019-Aug-24 05:17 326 17.2
2019-Aug-24 05:12 073 17.2
2019-Aug-24 05:07 310 17.2
2019-Aug-24 05:02 324 0 gusting 2 17.2
2019-Aug-24 04:47 061 17.2
2019-Aug-24 04:42 006 17.2
2019-Aug-24 04:37 054 17.2
2019-Aug-24 04:32 324 17.2
2019-Aug-24 04:17 329 17.8
2019-Aug-24 04:12 057 17.8
2019-Aug-24 04:07 317 17.8
2019-Aug-24 04:02 346 17.8
2019-Aug-24 03:47 335 17.8
2019-Aug-24 03:42 351 17.8
2019-Aug-24 03:37 063 18.3
2019-Aug-24 03:32 034 18.3
2019-Aug-24 03:17 034 18.3
2019-Aug-24 03:12 040 17.8
2019-Aug-24 03:07 336 17.8
2019-Aug-24 03:02 334 17.8
2019-Aug-24 02:47 353 17.8
2019-Aug-24 02:42 353 17.8
2019-Aug-24 02:37 353 17.8
2019-Aug-24 02:32 353 17.8
2019-Aug-24 02:17 022 17.8
2019-Aug-24 02:12 021 18.3
2019-Aug-24 02:07 021 18.3
2019-Aug-24 02:02 328 18.3
2019-Aug-24 01:47 353 18.3
2019-Aug-24 01:42 014 18.3
2019-Aug-24 01:37 015 18.3
2019-Aug-24 01:17 326 18.3
2019-Aug-24 01:12 354 18.3
2019-Aug-24 01:07 018 18.3
2019-Aug-24 01:02 018 18.3
2019-Aug-24 00:47 018 18.9
2019-Aug-24 00:42 028 18.9
2019-Aug-24 00:37 028 18.9
2019-Aug-24 00:32 028 18.9
2019-Aug-24 00:17 017 18.9
2019-Aug-24 00:12 017 18.9
2019-Aug-24 00:07 017 19.4
2019-Aug-24 00:02 017 19.4
2019-Aug-23 23:47 023 20.0
2019-Aug-23 23:42 001 20.0
2019-Aug-23 23:37 329 20.6
2019-Aug-23 23:32 307 20.6
2019-Aug-23 23:17 305 21.1
2019-Aug-23 23:12 300 21.1
2019-Aug-23 23:07 314 21.1
2019-Aug-23 23:02 302 21.1
2019-Aug-23 22:47 303 0 gusting 1 21.7
2019-Aug-23 22:42 053 21.7
2019-Aug-23 22:37 323 21.7
2019-Aug-23 22:32 287 21.7
2019-Aug-23 22:17 314 21.7
2019-Aug-23 22:12 291 0 gusting 2 21.7
2019-Aug-23 22:07 284 21.7
2019-Aug-23 22:02 030 21.7
2019-Aug-23 21:47 310 0 gusting 2 22.2
2019-Aug-23 21:42 013 22.2
2019-Aug-23 21:37 309 0 gusting 2 22.2
2019-Aug-23 21:32 344 22.2
2019-Aug-23 21:17 084 22.2
2019-Aug-23 21:12 086 22.2
2019-Aug-23 21:07 064 0 gusting 2 22.2
2019-Aug-23 21:02 304 22.8
2019-Aug-23 20:47 301 0 gusting 2 22.8
2019-Aug-23 20:42 015 22.8
2019-Aug-23 20:37 017 0 gusting 4 22.8
2019-Aug-23 20:32 011 22.8
2019-Aug-23 20:17 303 0 gusting 2 23.3
2019-Aug-23 20:12 348 23.3
2019-Aug-23 20:07 136 23.3
2019-Aug-23 20:02 316 0 gusting 5 23.3
2019-Aug-23 19:47 025 1 gusting 5 23.3
2019-Aug-23 19:42 021 0 gusting 2 23.3
2019-Aug-23 19:37 046 0 gusting 4 22.8
2019-Aug-23 19:32 243 22.8
2019-Aug-23 19:17 044 0 gusting 2 22.8
2019-Aug-23 19:12 307 22.8
2019-Aug-23 19:07 314 22.8
2019-Aug-23 19:02 279 2 gusting 4 22.8
2019-Aug-23 18:47 358 22.8
2019-Aug-23 18:42 332 22.8
2019-Aug-23 18:37 278 22.8
2019-Aug-23 18:32 343 22.8
2019-Aug-23 18:17 290 21.7
2019-Aug-23 18:12 358 1 gusting 2 21.7
2019-Aug-23 18:07 024 0 gusting 2 21.7
2019-Aug-23 18:02 021 0 gusting 2 21.7
2019-Aug-23 17:47 254 21.7
2019-Aug-23 17:42 063 21.7
2019-Aug-23 17:37 151 21.7
2019-Aug-23 17:32 262 21.7
2019-Aug-23 17:17 004 21.7
2019-Aug-23 17:12 311 0 gusting 4 21.7
2019-Aug-23 17:07 271 0 gusting 2 22.2
2019-Aug-23 17:02 259 22.2
2019-Aug-23 16:47 237 1 gusting 2 21.7
2019-Aug-23 16:42 212 1 gusting 2 21.7
2019-Aug-23 16:37 190 0 gusting 2 21.7
2019-Aug-23 16:32 228 21.1
2019-Aug-23 16:17 126 20.6
2019-Aug-23 16:12 264 0 gusting 2 20.6
2019-Aug-23 16:07 267 20.6
2019-Aug-23 16:02 306 0 gusting 2 20.0
2019-Aug-23 15:47 217 20.0
2019-Aug-23 15:42 087 20.0
2019-Aug-23 15:37 215 0 gusting 2 20.0
2019-Aug-23 15:32 298 20.0
2019-Aug-23 15:17 302 0 gusting 1 19.4
2019-Aug-23 15:12 19.4
2019-Aug-23 15:07 015 19.4
2019-Aug-23 15:02 282 19.4
2019-Aug-23 14:47 311 18.9
2019-Aug-23 14:42 311 18.3
2019-Aug-23 14:37 311 18.3
2019-Aug-23 14:32 311 18.3
2019-Aug-23 14:17 309 18.3
2019-Aug-23 14:12 309 17.8
2019-Aug-23 14:07 309 17.8
2019-Aug-23 14:02 354 17.8
2019-Aug-23 13:47 124 17.2
2019-Aug-23 13:42 127 0 gusting 1 17.2
2019-Aug-23 13:37 207 17.2
2019-Aug-23 13:32 206 17.2
2019-Aug-23 13:17 207 16.7
2019-Aug-23 13:12 207 16.7
2019-Aug-23 13:07 195 16.7
2019-Aug-23 13:02 195 16.7
2019-Aug-23 12:47 136 16.7
2019-Aug-23 12:42 145 16.7
2019-Aug-23 12:37 143 16.7
2019-Aug-23 12:32 143 16.7
2019-Aug-23 12:17 014 17.2
2019-Aug-23 12:12 295 0 gusting 1 17.2
2019-Aug-23 12:07 120 17.2
2019-Aug-23 12:02 150 17.2
2019-Aug-23 11:47 270 17.2
2019-Aug-23 11:42 006 17.2
2019-Aug-23 11:37 006 17.2
2019-Aug-23 11:32 337 17.2
2019-Aug-23 11:17 224 17.8
2019-Aug-23 11:12 224 17.8
2019-Aug-23 11:07 003 17.8
2019-Aug-23 11:02 332 17.8
2019-Aug-23 10:47 327 17.8
2019-Aug-23 10:42 327 17.8
2019-Aug-23 10:37 324 17.8
2019-Aug-23 10:32 010 17.8
2019-Aug-23 10:17 348 18.3
2019-Aug-23 10:12 350 18.3
2019-Aug-23 10:07 350 18.3
2019-Aug-23 10:02 162 18.3
2019-Aug-23 09:47 161 18.3
2019-Aug-23 09:42 160 18.3
2019-Aug-23 09:37 161 18.3
2019-Aug-23 09:32 161 18.3
2019-Aug-23 09:17 023 18.3
2019-Aug-23 09:12 048 18.3
2019-Aug-23 09:07 306 0 gusting 2 18.3
2019-Aug-23 09:02 285 0 gusting 4 18.9
2019-Aug-23 08:47 304 18.9
2019-Aug-23 08:42 239 18.9
2019-Aug-23 08:37 304 18.9
2019-Aug-23 08:32 310 0 gusting 1 18.9
2019-Aug-23 08:17 296 19.4
2019-Aug-23 08:12 279 0 gusting 2 19.4
2019-Aug-23 08:07 303 0 gusting 2 20.0
2019-Aug-23 08:02 326 0 gusting 2 20.0